THOR ALTAIR DEB, 1931

Orbit data source: Space-Track

THOR ALTAIR DEB, 1931 is space debris in SSO originally from a launch on Fri, 10 Sep 1965 UTC launched from the Air Force Western Test Range (AFWTR). Debris objects in space refer to the collection of defunct objects orbiting the Earth. Examples of debris include non-operational satellites, rocket bodies, and fragments generated from explosions, collisions, or faulty payload assembly.

Loading next visibility...
Identifier
1931, 1965-072E
Orbit
SSO
Country
Flag of USUS
Related business
Manufacturer
Unknown
Mission
Spacecraft
Bus & Motor
Unknown
Mass
Unknown
Launch date (UTC)
1965-09-10 (60 years ago)
Launch vehicle
Unknown
Launch site
Air Force Western Test Range (AFWTR)
Object type
Payload
Rocket body
Debris
Shape & HBR
Unknown
Radar Cross Section
Small (<0.1 m²)

Expand to show TLE details & history
Last TLE update: 1 day ago

TLE from 1 day ago
0 THOR ALTAIR DEB
1 01931U 65072E   25260.99219666  .00000791  00000-0  21852-3 0  9995
2 01931  99.0363 280.2600 0238563 153.6675 207.6869 14.34431846153818
Epoch: 2025-09-17T23:48Z
TLE epoch observation values (Epoch: 2025-09-17T23:48:45.791Z)
Latitude
0.00006°
Longitude
-74.091°
Altitude
931.914 km
Speed
7.307 km/s
True Right ascension
18h 41m 02s
True Declination
0° 00' 00"
Sunlit
Object was in daylight at epoch
Visualization orbit readout
Latitude
Unknown
Longitude
Unknown
Altitude
Unknown
Speed
Unknown
Apparent Right ascension
Unknown
Apparent Declination
Unknown
Sunlit
N/A
Visualization observer readout
Local Sidereal Time
16:46:16
Azimuth
Unknown
Elevation
Unknown
Doppler factor
Unknown
Orbital elements
Apogee altitude
944.734 km
Perigee altitude
603.482 km
Semi-major axis
7,152.245 km
Eccentricity
0.02386
Inclination
99.0363°
RAAN
280.26°
Arg. of periapsis
153.6675°
True anomaly
206.44951°
Mean anomaly
207.6869°
Eccentric anomaly
207.06498°
Mean motion
3.58822 °/min
Orbital period
100.33 mins
BSTAR
0.00021852
Loading maneuver chart data...
Computing Atmospheric mass density...
Loading historical data...
Loading historical data...
Loading historical data...
Loading historical data...
Loading historical data...
Loading historical data...
Loading historical data...

Documentation

Showing up to 5 results
|